Time,TemperatureF,DewpointF,PressureIn,WindDirection,WindDirectionDegrees,WindSpeedMPH,WindSpeedGustMPH,Humidity,HourlyPrecipIn,Conditions,Clouds,dailyrainin,SoftwareType,DateUTC
2013-02-16 00:01:00,45.3,38.0,29.51,SE,135,0.0,0.7,68,0.00,,,0.00,fowsr,2013-02-16 05:01:00,
2013-02-16 00:06:00,45.5,38.2,29.51,SW,225,0.0,0.7,68,0.00,,,0.00,fowsr,2013-02-16 05:06:00,
2013-02-16 00:11:00,45.5,38.2,29.51,South,180,0.0,0.7,68,0.00,,,0.00,fowsr,2013-02-16 05:11:00,
2013-02-16 00:16:00,45.7,38.3,29.51,SW,225,0.0,1.6,68,0.00,,,0.00,fowsr,2013-02-16 05:16:00,
2013-02-16 00:21:00,45.7,38.3,29.52,West,270,0.7,3.1,68,0.00,,,0.00,fowsr,2013-02-16 05:21:00,
2013-02-16 00:26:00,45.9,38.5,29.51,NW,315,0.0,0.7,68,0.00,,,0.00,fowsr,2013-02-16 05:26:00,
2013-02-16 00:31:00,45.9,38.5,29.51,North,0,0.7,2.2,68,0.00,,,0.00,fowsr,2013-02-16 05:31:00,
2013-02-16 00:36:00,45.9,38.5,29.52,NE,45,0.0,0.0,68,0.00,,,0.00,fowsr,2013-02-16 05:36:00,
2013-02-16 00:41:00,45.7,38.3,29.52,West,270,0.0,0.7,68,0.00,,,0.00,fowsr,2013-02-16 05:41:00,
2013-02-16 00:46:00,45.7,38.3,29.52,North,0,0.0,0.0,68,0.00,,,0.00,fowsr,2013-02-16 05:46:00,
2013-02-16 00:51:00,45.5,38.2,29.52,NE,45,0.0,0.7,68,0.00,,,0.00,fowsr,2013-02-16 05:51:00,
2013-02-16 00:56:00,45.5,38.2,29.52,NW,315,0.7,2.2,68,0.00,,,0.00,fowsr,2013-02-16 05:56:00,
2013-02-16 01:01:00,45.5,38.2,29.52,East,90,0.7,1.6,68,0.00,,,0.00,fowsr,2013-02-16 06:01:00,
2013-02-16 01:06:00,45.5,38.2,29.52,East,90,0.7,1.6,68,0.00,,,0.00,fowsr,2013-02-16 06:06:00,
2013-02-16 01:11:00,45.5,37.9,29.52,South,180,0.0,0.0,67,0.00,,,0.00,fowsr,2013-02-16 06:11:00,
2013-02-16 01:16:00,45.5,37.6,29.52,NW,315,0.0,0.7,66,0.00,,,0.00,fowsr,2013-02-16 06:16:00,
2013-02-16 01:21:00,45.3,37.4,29.52,NW,315,0.0,0.7,66,0.00,,,0.00,fowsr,2013-02-16 06:21:00,
2013-02-16 01:26:00,45.3,37.2,29.52,SW,225,0.0,0.7,65,0.00,,,0.00,fowsr,2013-02-16 06:26:00,
2013-02-16 01:31:00,45.3,36.9,29.52,North,0,0.0,0.7,64,0.00,,,0.00,fowsr,2013-02-16 06:31:00,
2013-02-16 01:36:00,45.1,36.7,29.51,NW,315,0.0,0.7,64,0.00,,,0.00,fowsr,2013-02-16 06:36:00,
2013-02-16 01:41:00,45.1,36.7,29.51,NW,315,0.0,0.0,64,0.00,,,0.00,fowsr,2013-02-16 06:41:00,
2013-02-16 01:46:00,45.0,36.5,29.51,SW,225,0.0,1.6,64,0.00,,,0.00,fowsr,2013-02-16 06:46:00,
2013-02-16 01:51:00,45.0,36.5,29.50,NE,45,0.0,0.7,64,0.00,,,0.00,fowsr,2013-02-16 06:51:00,
2013-02-16 01:56:00,44.8,36.1,29.51,NE,45,0.0,0.7,63,0.00,,,0.00,fowsr,2013-02-16 06:56:00,
2013-02-16 02:01:00,44.8,36.1,29.51,West,270,0.0,0.0,63,0.00,,,0.00,fowsr,2013-02-16 07:01:00,
2013-02-16 02:06:00,44.8,36.4,29.51,SW,225,0.0,0.0,64,0.00,,,0.00,fowsr,2013-02-16 07:06:00,
2013-02-16 02:11:00,44.6,36.2,29.51,NE,45,0.0,0.0,64,0.00,,,0.00,fowsr,2013-02-16 07:11:00,
2013-02-16 02:16:00,44.4,36.3,29.51,NW,315,0.0,0.0,65,0.00,,,0.00,fowsr,2013-02-16 07:16:00,
2013-02-16 02:21:00,44.4,36.3,29.51,NW,315,0.0,0.0,65,0.00,,,0.00,fowsr,2013-02-16 07:21:00,
2013-02-16 02:31:00,44.2,36.1,29.51,NNE,22,0.0,0.7,65,0.00,,,0.00,fowsr,2013-02-16 07:31:00,
2013-02-16 02:36:00,44.1,36.0,29.51,West,270,0.0,0.0,65,0.00,,,0.00,fowsr,2013-02-16 07:36:00,
2013-02-16 02:41:00,44.1,36.0,29.51,SE,135,0.0,0.0,65,0.00,,,0.00,fowsr,2013-02-16 07:41:00,
2013-02-16 02:46:00,44.1,35.7,29.51,East,90,0.0,0.7,64,0.00,,,0.00,fowsr,2013-02-16 07:46:00,
2013-02-16 02:51:00,44.1,35.7,29.51,SE,135,0.0,0.7,64,0.00,,,0.00,fowsr,2013-02-16 07:51:00,
2013-02-16 03:01:00,43.9,35.5,29.51,NE,45,0.0,0.7,64,0.00,,,0.00,fowsr,2013-02-16 08:01:00,
2013-02-16 03:06:00,43.9,35.5,29.50,NE,45,0.0,0.7,64,0.00,,,0.00,fowsr,2013-02-16 08:06:00,
2013-02-16 03:11:00,43.9,35.5,29.50,West,270,0.0,0.7,64,0.00,,,0.00,fowsr,2013-02-16 08:11:00,
2013-02-16 03:16:00,43.7,35.3,29.51,SW,225,0.0,0.0,64,0.00,,,0.00,fowsr,2013-02-16 08:16:00,
2013-02-16 03:21:00,43.7,35.1,29.50,NW,315,0.0,0.0,63,0.00,,,0.00,fowsr,2013-02-16 08:21:00,
2013-02-16 03:26:00,43.7,35.1,29.50,SW,225,0.0,0.0,63,0.00,,,0.00,fowsr,2013-02-16 08:26:00,
2013-02-16 03:31:00,43.7,35.1,29.50,NW,315,0.0,0.0,63,0.00,,,0.00,fowsr,2013-02-16 08:31:00,
2013-02-16 03:36:00,43.5,34.9,29.51,NW,315,0.0,0.0,63,0.00,,,0.00,fowsr,2013-02-16 08:36:00,
2013-02-16 03:41:00,43.5,34.9,29.51,NW,315,0.0,0.7,63,0.00,,,0.00,fowsr,2013-02-16 08:41:00,
2013-02-16 03:46:00,43.3,34.7,29.50,SE,135,0.0,0.0,63,0.00,,,0.00,fowsr,2013-02-16 08:46:00,
2013-02-16 03:51:00,43.3,34.7,29.50,SW,225,0.0,0.0,63,0.00,,,0.00,fowsr,2013-02-16 08:51:00,
2013-02-16 03:56:00,43.3,34.7,29.50,SW,225,0.0,0.0,63,0.00,,,0.00,fowsr,2013-02-16 08:56:00,
2013-02-16 04:01:00,43.3,34.7,29.50,NNW,337,0.0,0.7,63,0.00,,,0.00,fowsr,2013-02-16 09:01:00,
2013-02-16 04:06:00,43.3,34.7,29.50,SW,225,0.0,0.0,63,0.00,,,0.00,fowsr,2013-02-16 09:06:00,
2013-02-16 04:11:00,43.2,34.6,29.50,South,180,0.0,0.7,63,0.00,,,0.00,fowsr,2013-02-16 09:11:00,
2013-02-16 04:16:00,43.2,34.3,29.50,NW,315,0.0,0.0,62,0.00,,,0.00,fowsr,2013-02-16 09:16:00,
2013-02-16 04:21:00,43.2,34.6,29.50,SE,135,0.0,0.0,63,0.00,,,0.00,fowsr,2013-02-16 09:21:00,
2013-02-16 04:26:00,43.2,34.3,29.50,NW,315,0.0,0.7,62,0.00,,,0.00,fowsr,2013-02-16 09:26:00,
2013-02-16 04:31:00,43.2,34.3,29.49,NW,315,0.0,0.7,62,0.00,,,0.00,fowsr,2013-02-16 09:31:00,
2013-02-16 04:36:00,43.0,34.4,29.49,SW,225,0.0,0.0,63,0.00,,,0.00,fowsr,2013-02-16 09:36:00,
2013-02-16 04:41:00,43.0,34.4,29.49,NW,315,0.0,0.7,63,0.00,,,0.00,fowsr,2013-02-16 09:41:00,
2013-02-16 04:46:00,43.0,34.4,29.49,NW,315,0.0,0.7,63,0.00,,,0.00,fowsr,2013-02-16 09:46:00,
2013-02-16 04:51:00,42.8,34.2,29.49,SE,135,0.0,0.0,63,0.00,,,0.00,fowsr,2013-02-16 09:51:00,
2013-02-16 04:56:00,42.8,34.2,29.49,West,270,0.0,0.0,63,0.00,,,0.00,fowsr,2013-02-16 09:56:00,
2013-02-16 05:01:00,42.6,34.6,29.48,NW,315,0.0,0.0,65,0.00,,,0.00,fowsr,2013-02-16 10:01:00,
2013-02-16 05:06:00,42.6,34.6,29.48,NW,315,0.0,0.0,65,0.00,,,0.00,fowsr,2013-02-16 10:06:00,
2013-02-16 05:11:00,42.4,34.4,29.48,SE,135,0.0,0.0,65,0.00,,,0.00,fowsr,2013-02-16 10:11:00,
2013-02-16 05:16:00,42.4,34.4,29.48,North,0,0.0,0.0,65,0.00,,,0.00,fowsr,2013-02-16 10:16:00,
2013-02-16 05:21:00,42.4,34.4,29.48,West,270,0.0,0.0,65,0.00,,,0.00,fowsr,2013-02-16 10:21:00,
2013-02-16 05:26:00,42.4,34.4,29.48,NE,45,0.0,0.0,65,0.00,,,0.00,fowsr,2013-02-16 10:26:00,
2013-02-16 05:31:00,42.3,34.3,29.48,West,270,0.0,0.0,65,0.00,,,0.00,fowsr,2013-02-16 10:31:00,
2013-02-16 05:36:00,42.3,34.3,29.47,NW,315,0.0,0.0,65,0.00,,,0.00,fowsr,2013-02-16 10:36:00,
2013-02-16 05:41:00,42.1,34.1,29.48,NW,315,0.0,0.0,65,0.00,,,0.00,fowsr,2013-02-16 10:41:00,
2013-02-16 05:46:00,42.1,34.1,29.47,SW,225,0.0,0.7,65,0.00,,,0.00,fowsr,2013-02-16 10:46:00,
2013-02-16 05:51:00,42.1,34.1,29.48,SW,225,0.0,0.0,65,0.00,,,0.00,fowsr,2013-02-16 10:51:00,
2013-02-16 05:56:00,42.1,34.1,29.48,SW,225,0.0,0.0,65,0.00,,,0.00,fowsr,2013-02-16 10:56:00,
2013-02-16 06:01:00,42.1,34.1,29.48,West,270,0.0,0.7,65,0.00,,,0.00,fowsr,2013-02-16 11:01:00,
2013-02-16 06:06:00,41.9,33.7,29.48,SE,135,0.0,0.0,64,0.00,,,0.00,fowsr,2013-02-16 11:06:00,
2013-02-16 06:11:00,41.9,33.7,29.48,North,0,0.0,0.0,64,0.00,,,0.00,fowsr,2013-02-16 11:11:00,
2013-02-16 06:21:00,41.9,33.7,29.47,NW,315,0.0,0.0,64,0.00,,,0.00,fowsr,2013-02-16 11:21:00,
2013-02-16 06:26:00,41.7,33.5,29.47,NW,315,0.0,0.0,64,0.00,,,0.00,fowsr,2013-02-16 11:26:00,
2013-02-16 06:31:00,41.7,33.8,29.47,North,0,0.0,0.0,65,0.00,,,0.00,fowsr,2013-02-16 11:31:00,
2013-02-16 06:36:00,41.7,33.8,29.47,North,0,0.0,0.0,65,0.00,,,0.00,fowsr,2013-02-16 11:36:00,
2013-02-16 06:41:00,41.7,33.8,29.47,SW,225,0.0,0.0,65,0.00,,,0.00,fowsr,2013-02-16 11:41:00,
2013-02-16 06:46:00,41.7,33.8,29.47,NE,45,0.0,0.7,65,0.00,,,0.00,fowsr,2013-02-16 11:46:00,
2013-02-16 06:51:00,41.7,33.8,29.47,NW,315,0.0,0.7,65,0.00,,,0.00,fowsr,2013-02-16 11:51:00,
2013-02-16 06:56:00,41.9,33.9,29.47,West,270,0.0,0.7,65,0.00,,,0.00,fowsr,2013-02-16 11:56:00,
2013-02-16 07:01:00,41.9,33.9,29.48,SW,225,0.0,0.7,65,0.00,,,0.00,fowsr,2013-02-16 12:01:00,
2013-02-16 07:06:00,41.9,33.9,29.48,SW,225,0.0,0.7,65,0.00,,,0.00,fowsr,2013-02-16 12:06:00,
2013-02-16 07:11:00,41.9,33.9,29.48,NE,45,0.0,0.0,65,0.00,,,0.00,fowsr,2013-02-16 12:11:00,
2013-02-16 07:16:00,41.7,34.0,29.49,North,0,0.0,0.7,66,0.00,,,0.00,fowsr,2013-02-16 12:16:00,
2013-02-16 07:21:00,41.7,34.0,29.49,NW,315,0.0,0.0,66,0.00,,,0.00,fowsr,2013-02-16 12:21:00,
2013-02-16 07:26:00,41.7,34.3,29.49,North,0,0.0,0.7,67,0.00,,,0.00,fowsr,2013-02-16 12:26:00,
2013-02-16 07:31:00,41.7,34.6,29.48,South,180,0.0,0.7,68,0.00,,,0.00,fowsr,2013-02-16 12:31:00,
2013-02-16 07:36:00,41.5,34.9,29.49,North,0,0.0,0.7,70,0.00,,,0.00,fowsr,2013-02-16 12:36:00,
2013-02-16 07:41:00,41.4,35.0,29.49,SW,225,0.0,0.7,71,0.00,,,0.00,fowsr,2013-02-16 12:41:00,
2013-02-16 07:46:00,41.2,35.1,29.49,South,180,0.0,0.7,72,0.00,,,0.00,fowsr,2013-02-16 12:46:00,
2013-02-16 07:51:00,41.0,35.2,29.49,North,0,0.0,0.0,73,0.00,,,0.00,fowsr,2013-02-16 12:51:00,
2013-02-16 07:56:00,40.8,35.5,29.50,South,180,0.0,0.7,75,0.00,,,0.00,fowsr,2013-02-16 12:56:00,
2013-02-16 08:01:00,40.5,35.4,29.50,West,270,0.0,0.7,76,0.00,,,0.00,fowsr,2013-02-16 13:01:00,
2013-02-16 08:06:00,40.3,35.7,29.50,NW,315,0.0,0.0,78,0.00,,,0.00,fowsr,2013-02-16 13:06:00,
2013-02-16 08:11:00,40.1,35.7,29.50,West,270,0.0,1.6,79,0.00,,,0.00,fowsr,2013-02-16 13:11:00,
2013-02-16 08:16:00,39.7,35.8,29.50,North,0,0.0,0.7,81,0.00,,,0.00,fowsr,2013-02-16 13:16:00,
2013-02-16 08:21:00,39.6,35.7,29.50,NW,315,0.7,1.6,81,0.00,,,0.00,fowsr,2013-02-16 13:21:00,
2013-02-16 08:26:00,39.2,35.5,29.50,NE,45,0.0,0.0,82,0.00,,,0.00,fowsr,2013-02-16 13:26:00,
2013-02-16 08:31:00,39.2,35.8,29.49,SE,135,0.0,0.0,83,0.00,,,0.00,fowsr,2013-02-16 13:31:00,
2013-02-16 08:36:00,38.8,35.8,29.49,SSE,157,0.0,0.7,85,0.01,,,0.01,fowsr,2013-02-16 13:36:00,
2013-02-16 08:41:00,38.7,35.9,29.49,East,90,0.7,1.6,86,0.01,,,0.01,fowsr,2013-02-16 13:41:00,
2013-02-16 08:46:00,38.5,35.7,29.50,SW,225,0.0,0.7,86,0.01,,,0.01,fowsr,2013-02-16 13:46:00,
2013-02-16 08:51:00,38.3,35.7,29.50,SW,225,0.0,0.7,87,0.01,,,0.01,fowsr,2013-02-16 13:51:00,
2013-02-16 08:56:00,38.1,35.8,29.50,SE,135,0.0,0.7,88,0.01,,,0.01,fowsr,2013-02-16 13:56:00,
2013-02-16 09:01:00,37.9,35.8,29.50,North,0,0.0,0.0,89,0.02,,,0.02,fowsr,2013-02-16 14:01:00,
2013-02-16 09:06:00,37.9,35.8,29.50,SE,135,0.0,0.7,89,0.02,,,0.02,fowsr,2013-02-16 14:06:00,
2013-02-16 09:11:00,37.6,35.6,29.49,NW,315,0.0,0.7,90,0.04,,,0.04,fowsr,2013-02-16 14:11:00,
2013-02-16 09:16:00,37.4,35.5,29.50,NW,315,0.7,3.8,90,0.05,,,0.05,fowsr,2013-02-16 14:16:00,
2013-02-16 09:21:00,37.2,34.5,29.50,NW,315,0.0,0.7,86,0.05,,,0.05,fowsr,2013-02-16 14:21:00,
2013-02-16 09:26:00,37.0,34.5,29.50,North,0,0.0,1.6,87,0.06,,,0.06,fowsr,2013-02-16 14:26:00,
2013-02-16 09:31:00,36.9,34.3,29.50,West,270,0.0,0.7,87,0.06,,,0.06,fowsr,2013-02-16 14:31:00,
2013-02-16 09:36:00,36.5,34.2,29.50,SE,135,0.0,0.7,88,0.06,,,0.06,fowsr,2013-02-16 14:36:00,
2013-02-16 09:41:00,36.5,34.2,29.49,West,270,0.0,0.0,88,0.06,,,0.07,fowsr,2013-02-16 14:41:00,
2013-02-16 09:46:00,36.1,33.8,29.49,NW,315,0.0,0.7,88,0.07,,,0.08,fowsr,2013-02-16 14:46:00,
2013-02-16 09:51:00,36.0,33.6,29.49,South,180,0.0,0.7,88,0.07,,,0.08,fowsr,2013-02-16 14:51:00,
2013-02-16 09:56:00,35.6,33.3,29.48,NW,315,0.0,0.0,88,0.08,,,0.09,fowsr,2013-02-16 14:56:00,
2013-02-16 10:01:00,35.2,33.1,29.49,North,0,0.0,0.7,89,0.07,,,0.09,fowsr,2013-02-16 15:01:00,
2013-02-16 10:06:00,35.1,33.0,29.48,North,0,0.0,0.0,89,0.07,,,0.09,fowsr,2013-02-16 15:06:00,
2013-02-16 10:11:00,34.7,32.6,29.48,West,270,0.0,0.7,89,0.08,,,0.11,fowsr,2013-02-16 15:11:00,
2013-02-16 10:16:00,34.5,32.4,29.49,West,270,0.0,0.0,89,0.07,,,0.11,fowsr,2013-02-16 15:16:00,
2013-02-16 10:21:00,34.3,32.3,29.48,West,270,0.0,0.0,89,0.06,,,0.11,fowsr,2013-02-16 15:21:00,
2013-02-16 10:26:00,34.2,32.1,29.49,West,270,0.0,0.0,89,0.06,,,0.11,fowsr,2013-02-16 15:26:00,
2013-02-16 10:31:00,34.2,32.1,29.49,West,270,0.0,0.0,89,0.05,,,0.11,fowsr,2013-02-16 15:31:00,
2013-02-16 10:36:00,34.0,31.9,29.48,West,270,0.0,0.0,89,0.05,,,0.11,fowsr,2013-02-16 15:36:00,
2013-02-16 10:41:00,34.0,31.9,29.49,SE,135,0.0,0.0,89,0.05,,,0.11,fowsr,2013-02-16 15:41:00,
2013-02-16 10:46:00,33.8,31.7,29.48,SE,135,0.0,0.0,89,0.04,,,0.11,fowsr,2013-02-16 15:46:00,
2013-02-16 10:51:00,33.8,31.7,29.48,SE,135,0.0,0.0,89,0.02,,,0.11,fowsr,2013-02-16 15:51:00,
2013-02-16 10:56:00,33.8,31.7,29.48,SE,135,0.0,0.0,89,0.02,,,0.11,fowsr,2013-02-16 15:56:00,
2013-02-16 11:01:00,33.6,31.7,29.49,SE,135,0.0,0.0,90,0.01,,,0.11,fowsr,2013-02-16 16:01:00,
2013-02-16 11:06:00,33.6,31.7,29.49,SE,135,0.0,0.0,90,0.01,,,0.11,fowsr,2013-02-16 16:06:00,
2013-02-16 11:11:00,33.6,31.9,29.48,SE,135,0.0,0.0,91,0.01,,,0.11,fowsr,2013-02-16 16:11:00,
2013-02-16 11:16:00,33.6,31.9,29.48,SE,135,0.0,0.0,91,0.00,,,0.11,fowsr,2013-02-16 16:16:00,
2013-02-16 11:21:00,33.6,31.9,29.47,North,0,0.0,0.0,91,0.00,,,0.11,fowsr,2013-02-16 16:21:00,
2013-02-16 11:26:00,33.6,31.9,29.48,North,0,0.0,0.0,91,0.00,,,0.11,fowsr,2013-02-16 16:26:00,
2013-02-16 11:31:00,33.6,31.9,29.48,North,0,0.0,0.0,91,0.00,,,0.11,fowsr,2013-02-16 16:31:00,
2013-02-16 11:36:00,33.6,31.9,29.47,SE,135,0.0,0.0,91,0.00,,,0.11,fowsr,2013-02-16 16:36:00,
2013-02-16 11:41:00,33.6,31.9,29.47,SE,135,0.0,0.0,91,0.00,,,0.11,fowsr,2013-02-16 16:41:00,
2013-02-16 11:46:00,33.6,32.1,29.47,SE,135,0.0,0.0,92,0.00,,,0.11,fowsr,2013-02-16 16:46:00,
2013-02-16 11:51:00,33.6,32.1,29.47,East,90,0.0,0.0,92,0.00,,,0.11,fowsr,2013-02-16 16:51:00,
2013-02-16 11:56:00,33.8,32.1,29.46,East,90,0.0,0.0,91,0.00,,,0.11,fowsr,2013-02-16 16:56:00,
2013-02-16 12:01:00,33.8,32.1,29.46,North,0,0.0,0.0,91,0.00,,,0.11,fowsr,2013-02-16 17:01:00,
2013-02-16 12:06:00,34.0,32.3,29.46,North,0,0.0,0.0,91,0.00,,,0.11,fowsr,2013-02-16 17:06:00,
2013-02-16 12:11:00,34.0,32.3,29.46,South,180,0.0,0.0,91,0.00,,,0.11,fowsr,2013-02-16 17:11:00,
2013-02-16 12:16:00,34.2,32.5,29.46,East,90,0.0,0.0,91,0.00,,,0.11,fowsr,2013-02-16 17:16:00,
2013-02-16 12:21:00,34.2,32.7,29.45,NW,315,0.0,0.0,92,0.00,,,0.11,fowsr,2013-02-16 17:21:00,
2013-02-16 12:26:00,34.2,32.7,29.44,NW,315,0.0,0.0,92,0.00,,,0.11,fowsr,2013-02-16 17:26:00,
2013-02-16 12:31:00,34.2,32.7,29.44,SE,135,0.0,0.0,92,0.00,,,0.11,fowsr,2013-02-16 17:31:00,
2013-02-16 12:36:00,34.2,32.7,29.44,NE,45,0.0,0.0,92,0.00,,,0.11,fowsr,2013-02-16 17:36:00,
2013-02-16 12:41:00,34.3,32.8,29.44,NW,315,0.0,0.0,92,0.00,,,0.11,fowsr,2013-02-16 17:41:00,
2013-02-16 12:46:00,34.3,32.8,29.43,NE,45,0.0,0.0,92,0.00,,,0.11,fowsr,2013-02-16 17:46:00,
2013-02-16 12:51:00,34.3,32.8,29.43,East,90,0.0,0.0,92,0.00,,,0.11,fowsr,2013-02-16 17:51:00,
2013-02-16 12:56:00,34.3,33.0,29.43,West,270,0.0,0.0,93,0.00,,,0.11,fowsr,2013-02-16 17:56:00,
2013-02-16 13:01:00,34.3,33.0,29.43,NW,315,0.0,0.0,93,0.00,,,0.11,fowsr,2013-02-16 18:01:00,
2013-02-16 13:06:00,34.3,33.0,29.42,NE,45,0.0,0.7,93,0.01,,,0.12,fowsr,2013-02-16 18:06:00,
2013-02-16 13:11:00,34.3,33.0,29.42,West,270,0.0,0.0,93,0.01,,,0.12,fowsr,2013-02-16 18:11:00,
2013-02-16 13:16:00,34.3,33.0,29.42,SE,135,0.0,0.0,93,0.02,,,0.13,fowsr,2013-02-16 18:16:00,
2013-02-16 13:21:00,34.3,33.0,29.42,NW,315,0.0,0.0,93,0.04,,,0.14,fowsr,2013-02-16 18:21:00,
2013-02-16 13:26:00,34.5,33.2,29.42,North,0,0.0,0.0,93,0.04,,,0.14,fowsr,2013-02-16 18:26:00,
2013-02-16 13:31:00,34.3,33.0,29.42,SW,225,0.0,0.0,93,0.05,,,0.15,fowsr,2013-02-16 18:31:00,
2013-02-16 13:36:00,34.3,33.0,29.42,West,270,0.0,0.0,93,0.06,,,0.17,fowsr,2013-02-16 18:36:00,
2013-02-16 13:41:00,34.3,33.0,29.41,West,270,0.0,0.7,93,0.06,,,0.17,fowsr,2013-02-16 18:41:00,
2013-02-16 13:46:00,34.3,33.0,29.40,West,270,0.0,0.0,93,0.07,,,0.18,fowsr,2013-02-16 18:46:00,
2013-02-16 13:51:00,34.3,33.0,29.40,NW,315,0.0,0.0,93,0.08,,,0.19,fowsr,2013-02-16 18:51:00,
2013-02-16 13:56:00,34.5,33.2,29.40,SW,225,0.0,0.0,93,0.09,,,0.20,fowsr,2013-02-16 18:56:00,
2013-02-16 14:01:00,34.5,33.2,29.40,NW,315,0.0,0.0,93,0.09,,,0.20,fowsr,2013-02-16 19:01:00,
2013-02-16 14:06:00,34.5,33.2,29.40,SW,225,0.0,0.0,93,0.11,,,0.21,fowsr,2013-02-16 19:06:00,
2013-02-16 14:11:00,34.5,33.2,29.41,North,0,0.0,0.0,93,0.09,,,0.21,fowsr,2013-02-16 19:11:00,
2013-02-16 14:16:00,34.3,33.0,29.41,SW,225,0.0,0.0,93,0.11,,,0.22,fowsr,2013-02-16 19:16:00,
2013-02-16 14:21:00,34.3,33.0,29.40,SE,135,0.0,0.7,93,0.09,,,0.22,fowsr,2013-02-16 19:21:00,
2013-02-16 14:26:00,34.3,33.0,29.40,SW,225,0.0,0.7,93,0.09,,,0.24,fowsr,2013-02-16 19:26:00,
2013-02-16 14:31:00,34.3,33.0,29.41,West,270,0.0,0.0,93,0.08,,,0.24,fowsr,2013-02-16 19:31:00,
2013-02-16 14:36:00,34.3,33.0,29.40,West,270,0.0,0.0,93,0.09,,,0.25,fowsr,2013-02-16 19:36:00,
2013-02-16 14:41:00,34.2,32.9,29.40,West,270,0.0,0.7,93,0.08,,,0.25,fowsr,2013-02-16 19:41:00,
2013-02-16 14:46:00,34.2,32.9,29.39,West,270,0.0,1.6,93,0.08,,,0.26,fowsr,2013-02-16 19:46:00,
2013-02-16 14:51:00,34.2,32.9,29.40,West,270,0.0,0.7,93,0.08,,,0.26,fowsr,2013-02-16 19:51:00,
2013-02-16 14:56:00,34.2,33.1,29.41,SW,225,0.0,0.7,94,0.07,,,0.26,fowsr,2013-02-16 19:56:00,
2013-02-16 15:01:00,34.2,33.1,29.40,West,270,0.0,0.7,94,0.07,,,0.27,fowsr,2013-02-16 20:01:00,
2013-02-16 15:06:00,34.2,33.1,29.39,NW,315,0.0,0.0,94,0.07,,,0.27,fowsr,2013-02-16 20:06:00,
2013-02-16 15:11:00,34.2,33.1,29.39,SW,225,0.0,0.7,94,0.06,,,0.27,fowsr,2013-02-16 20:11:00,
2013-02-16 15:16:00,34.2,33.1,29.39,SW,225,0.0,0.0,94,0.06,,,0.27,fowsr,2013-02-16 20:16:00,
2013-02-16 15:21:00,34.0,32.9,29.39,East,90,0.0,0.0,94,0.06,,,0.28,fowsr,2013-02-16 20:21:00,
2013-02-16 15:26:00,34.0,32.9,29.39,SW,225,0.0,0.0,94,0.06,,,0.28,fowsr,2013-02-16 20:26:00,
2013-02-16 15:31:00,33.8,32.7,29.38,South,180,0.0,0.0,94,0.05,,,0.28,fowsr,2013-02-16 20:31:00,
2013-02-16 15:36:00,33.8,32.7,29.39,SW,225,0.0,0.0,94,0.05,,,0.28,fowsr,2013-02-16 20:36:00,
2013-02-16 15:41:00,33.8,32.7,29.39,West,270,0.0,0.0,94,0.05,,,0.29,fowsr,2013-02-16 20:41:00,
2013-02-16 15:46:00,33.8,32.7,29.39,West,270,0.0,0.0,94,0.05,,,0.29,fowsr,2013-02-16 20:46:00,
2013-02-16 15:51:00,33.8,32.7,29.39,West,270,0.0,0.0,94,0.04,,,0.29,fowsr,2013-02-16 20:51:00,
2013-02-16 15:56:00,33.8,32.7,29.39,West,270,0.0,0.0,94,0.04,,,0.29,fowsr,2013-02-16 20:56:00,
2013-02-16 16:01:00,33.6,32.7,29.39,West,270,0.0,0.0,95,0.04,,,0.29,fowsr,2013-02-16 21:01:00,
2013-02-16 16:06:00,33.6,32.5,29.39,West,270,0.0,0.7,94,0.02,,,0.29,fowsr,2013-02-16 21:06:00,
2013-02-16 16:11:00,33.4,32.3,29.39,East,90,0.0,0.0,94,0.02,,,0.29,fowsr,2013-02-16 21:11:00,
2013-02-16 16:16:00,33.4,32.5,29.39,North,0,0.0,0.0,95,0.02,,,0.29,fowsr,2013-02-16 21:16:00,
2013-02-16 16:21:00,33.4,32.5,29.39,South,180,0.0,0.7,95,0.04,,,0.31,fowsr,2013-02-16 21:21:00,
2013-02-16 16:26:00,33.4,32.5,29.39,North,0,0.0,1.6,95,0.02,,,0.31,fowsr,2013-02-16 21:26:00,
2013-02-16 16:31:00,33.4,32.5,29.39,North,0,0.0,0.0,95,0.02,,,0.31,fowsr,2013-02-16 21:31:00,
2013-02-16 16:36:00,33.6,32.7,29.39,South,180,0.0,0.7,95,0.02,,,0.31,fowsr,2013-02-16 21:36:00,
2013-02-16 16:41:00,33.6,32.7,29.39,NW,315,0.0,0.0,95,0.04,,,0.32,fowsr,2013-02-16 21:41:00,
2013-02-16 16:46:00,33.6,32.7,29.39,North,0,0.0,0.7,95,0.02,,,0.32,fowsr,2013-02-16 21:46:00,
2013-02-16 16:56:00,33.6,32.7,29.39,NW,315,0.0,0.0,95,0.02,,,0.32,fowsr,2013-02-16 21:56:00,
2013-02-16 17:01:00,33.6,32.7,29.39,SW,225,0.0,0.0,95,0.04,,,0.33,fowsr,2013-02-16 22:01:00,
2013-02-16 17:06:00,33.6,32.7,29.39,North,0,0.0,0.0,95,0.04,,,0.33,fowsr,2013-02-16 22:06:00,
2013-02-16 17:11:00,33.6,32.7,29.38,NE,45,0.0,1.6,95,0.04,,,0.33,fowsr,2013-02-16 22:11:00,
2013-02-16 17:16:00,33.4,32.5,29.38,South,180,0.0,0.0,95,0.04,,,0.33,fowsr,2013-02-16 22:16:00,
2013-02-16 17:21:00,33.4,32.5,29.38,West,270,0.0,0.7,95,0.04,,,0.33,fowsr,2013-02-16 22:21:00,
2013-02-16 17:26:00,33.4,32.5,29.38,NE,45,0.0,0.0,95,0.02,,,0.33,fowsr,2013-02-16 22:26:00,
2013-02-16 17:31:00,33.3,32.3,29.38,SW,225,0.0,0.7,95,0.02,,,0.33,fowsr,2013-02-16 22:31:00,
2013-02-16 17:36:00,33.3,32.3,29.39,SW,225,0.0,1.6,95,0.02,,,0.33,fowsr,2013-02-16 22:36:00,
2013-02-16 17:41:00,33.3,32.3,29.39,SW,225,0.0,0.0,95,0.02,,,0.34,fowsr,2013-02-16 22:41:00,
2013-02-16 17:46:00,33.3,32.3,29.39,West,270,0.0,0.0,95,0.02,,,0.34,fowsr,2013-02-16 22:46:00,
2013-02-16 17:51:00,33.3,32.3,29.39,West,270,0.0,0.7,95,0.02,,,0.34,fowsr,2013-02-16 22:51:00,
2013-02-16 17:56:00,33.3,32.3,29.39,West,270,0.0,1.6,95,0.02,,,0.34,fowsr,2013-02-16 22:56:00,
2013-02-16 18:01:00,33.3,32.3,29.40,SW,225,0.0,1.6,95,0.02,,,0.34,fowsr,2013-02-16 23:01:00,
2013-02-16 18:06:00,33.1,32.2,29.39,East,90,0.0,0.7,95,0.01,,,0.34,fowsr,2013-02-16 23:06:00,
2013-02-16 18:11:00,33.1,32.2,29.39,South,180,0.0,0.7,95,0.01,,,0.34,fowsr,2013-02-16 23:11:00,
2013-02-16 18:16:00,33.1,32.2,29.40,South,180,0.0,0.7,95,0.01,,,0.34,fowsr,2013-02-16 23:16:00,
2013-02-16 18:21:00,32.9,32.0,29.40,SW,225,0.0,0.0,95,0.01,,,0.34,fowsr,2013-02-16 23:21:00,
2013-02-16 18:26:00,32.9,32.0,29.40,SW,225,0.0,0.0,95,0.01,,,0.34,fowsr,2013-02-16 23:26:00,
2013-02-16 18:31:00,32.9,32.0,29.41,SW,225,0.0,0.0,95,0.01,,,0.34,fowsr,2013-02-16 23:31:00,
2013-02-16 18:36:00,32.9,32.2,29.41,SW,225,0.0,0.0,96,0.01,,,0.34,fowsr,2013-02-16 23:36:00,
2013-02-16 18:41:00,32.9,32.2,29.40,SW,225,0.0,0.0,96,0.01,,,0.34,fowsr,2013-02-16 23:41:00,
2013-02-16 18:46:00,32.9,32.2,29.40,SW,225,0.0,0.0,96,0.00,,,0.34,fowsr,2013-02-16 23:46:00,
2013-02-16 18:51:00,32.9,32.2,29.41,South,180,0.0,0.0,96,0.00,,,0.34,fowsr,2013-02-16 23:51:00,
2013-02-16 19:01:00,32.9,32.2,29.41,NW,315,0.0,0.0,96,0.00,,,0.34,fowsr,2013-02-17 00:01:00,
2013-02-16 19:06:00,32.9,32.2,29.41,East,90,0.0,0.0,96,0.00,,,0.34,fowsr,2013-02-17 00:06:00,
2013-02-16 19:11:00,32.9,32.2,29.41,West,270,0.0,0.0,96,0.00,,,0.34,fowsr,2013-02-17 00:11:00,
2013-02-16 19:16:00,32.9,32.2,29.40,West,270,0.0,0.0,96,0.00,,,0.34,fowsr,2013-02-17 00:16:00,
2013-02-16 19:21:00,32.9,32.2,29.41,West,270,0.0,0.0,96,0.00,,,0.34,fowsr,2013-02-17 00:21:00,
2013-02-16 19:26:00,32.9,32.2,29.41,West,270,0.0,0.0,96,0.00,,,0.34,fowsr,2013-02-17 00:26:00,
2013-02-16 19:31:00,32.9,32.2,29.41,South,180,0.0,0.0,96,0.00,,,0.34,fowsr,2013-02-17 00:31:00,
2013-02-16 19:41:00,32.9,32.2,29.40,SE,135,0.0,0.0,96,0.00,,,0.34,fowsr,2013-02-17 00:41:00,
2013-02-16 19:46:00,32.9,32.2,29.41,NW,315,0.0,0.0,96,0.00,,,0.34,fowsr,2013-02-17 00:46:00,
2013-02-16 19:51:00,32.9,32.2,29.41,NW,315,0.0,0.0,96,0.00,,,0.34,fowsr,2013-02-17 00:51:00,
2013-02-16 20:01:00,32.9,32.2,29.41,NE,45,0.0,0.0,96,0.00,,,0.34,fowsr,2013-02-17 01:01:00,
2013-02-16 20:06:00,32.9,32.2,29.41,NE,45,0.0,0.0,96,0.00,,,0.34,fowsr,2013-02-17 01:06:00,
2013-02-16 20:16:00,32.9,32.2,29.41,South,180,0.0,0.0,96,0.00,,,0.34,fowsr,2013-02-17 01:16:00,
2013-02-16 20:21:00,32.9,32.2,29.41,South,180,0.0,0.0,96,0.00,,,0.34,fowsr,2013-02-17 01:21:00,
2013-02-16 20:26:00,32.7,32.0,29.41,SW,225,0.0,0.0,96,0.00,,,0.34,fowsr,2013-02-17 01:26:00,
2013-02-16 20:31:00,32.7,32.0,29.41,SW,225,0.0,0.0,96,0.00,,,0.34,fowsr,2013-02-17 01:31:00,
2013-02-16 20:36:00,32.7,32.0,29.42,SW,225,0.0,0.0,96,0.00,,,0.34,fowsr,2013-02-17 01:36:00,
2013-02-16 20:41:00,32.7,32.0,29.41,SW,225,0.0,0.0,96,0.00,,,0.34,fowsr,2013-02-17 01:41:00,
2013-02-16 20:51:00,32.7,32.0,29.42,SW,225,0.0,0.0,96,0.00,,,0.34,fowsr,2013-02-17 01:51:00,
2013-02-16 20:56:00,32.5,31.8,29.42,SW,225,0.0,0.0,96,0.00,,,0.34,fowsr,2013-02-17 01:56:00,
2013-02-16 21:01:00,32.5,31.8,29.43,SW,225,0.0,0.0,96,0.00,,,0.34,fowsr,2013-02-17 02:01:00,
2013-02-16 21:06:00,32.5,31.8,29.43,SW,225,0.0,0.0,96,0.00,,,0.34,fowsr,2013-02-17 02:06:00,
2013-02-16 21:11:00,32.4,31.6,29.43,SW,225,0.0,0.0,96,0.00,,,0.34,fowsr,2013-02-17 02:11:00,
2013-02-16 21:16:00,32.4,31.6,29.43,SW,225,0.0,0.0,96,0.00,,,0.34,fowsr,2013-02-17 02:16:00,
2013-02-16 21:21:00,32.2,31.5,29.43,SW,225,0.0,0.0,96,0.00,,,0.34,fowsr,2013-02-17 02:21:00,
2013-02-16 21:26:00,32.4,31.6,29.44,SW,225,0.0,0.0,96,0.00,,,0.34,fowsr,2013-02-17 02:26:00,
2013-02-16 21:31:00,32.2,31.5,29.44,SW,225,0.0,0.0,96,0.00,,,0.34,fowsr,2013-02-17 02:31:00,
2013-02-16 21:36:00,32.2,31.5,29.44,SW,225,0.0,0.0,96,0.00,,,0.34,fowsr,2013-02-17 02:36:00,
2013-02-16 21:41:00,32.0,31.3,29.44,SW,225,0.0,0.0,96,0.00,,,0.34,fowsr,2013-02-17 02:41:00,
2013-02-16 21:46:00,32.0,31.3,29.44,SW,225,0.0,0.0,96,0.00,,,0.34,fowsr,2013-02-17 02:46:00,
2013-02-16 21:51:00,32.0,31.3,29.44,SW,225,0.0,0.0,96,0.00,,,0.34,fowsr,2013-02-17 02:51:00,
2013-02-16 21:56:00,31.8,31.3,29.44,SW,225,0.0,0.0,97,0.00,,,0.34,fowsr,2013-02-17 02:56:00,
2013-02-16 22:01:00,31.8,31.3,29.45,SW,225,0.0,0.0,97,0.00,,,0.34,fowsr,2013-02-17 03:01:00,
2013-02-16 22:06:00,31.8,31.3,29.44,SW,225,0.0,0.0,97,0.00,,,0.34,fowsr,2013-02-17 03:06:00,
2013-02-16 22:16:00,31.6,30.9,29.45,SW,225,0.0,0.0,96,0.00,,,0.34,fowsr,2013-02-17 03:16:00,
2013-02-16 22:21:00,31.6,30.9,29.45,SW,225,0.0,0.0,96,0.00,,,0.34,fowsr,2013-02-17 03:21:00,
2013-02-16 22:26:00,31.5,30.7,29.45,SW,225,0.0,0.0,96,0.00,,,0.34,fowsr,2013-02-17 03:26:00,
2013-02-16 22:31:00,31.5,30.7,29.45,SW,225,0.0,0.0,96,0.00,,,0.34,fowsr,2013-02-17 03:31:00,
2013-02-16 22:36:00,31.3,30.6,29.45,SW,225,0.0,0.0,96,0.00,,,0.34,fowsr,2013-02-17 03:36:00,
2013-02-16 22:41:00,31.3,30.6,29.45,SW,225,0.0,0.0,96,0.00,,,0.34,fowsr,2013-02-17 03:41:00,
2013-02-16 22:46:00,31.1,30.4,29.45,SW,225,0.0,0.0,96,0.00,,,0.34,fowsr,2013-02-17 03:46:00,
2013-02-16 22:51:00,31.1,30.4,29.45,SW,225,0.0,0.0,96,0.00,,,0.34,fowsr,2013-02-17 03:51:00,
2013-02-16 22:56:00,31.1,30.2,29.45,SW,225,0.0,0.0,95,0.00,,,0.34,fowsr,2013-02-17 03:56:00,
2013-02-16 23:01:00,30.9,30.0,29.45,SW,225,0.0,0.0,95,0.00,,,0.34,fowsr,2013-02-17 04:01:00,
2013-02-16 23:06:00,31.1,30.2,29.45,SW,225,0.0,0.0,95,0.00,,,0.34,fowsr,2013-02-17 04:06:00,
2013-02-16 23:11:00,31.1,30.2,29.45,SW,225,0.0,0.0,95,0.00,,,0.34,fowsr,2013-02-17 04:11:00,
2013-02-16 23:16:00,31.1,30.0,29.46,SW,225,0.0,0.0,94,0.00,,,0.34,fowsr,2013-02-17 04:16:00,
2013-02-16 23:21:00,31.1,30.0,29.46,SW,225,0.0,0.0,94,0.00,,,0.34,fowsr,2013-02-17 04:21:00,
2013-02-16 23:26:00,30.9,29.7,29.46,SW,225,0.0,0.0,93,0.00,,,0.34,fowsr,2013-02-17 04:26:00,
2013-02-16 23:31:00,30.9,29.5,29.46,SW,225,0.0,0.0,92,0.00,,,0.34,fowsr,2013-02-17 04:31:00,
2013-02-16 23:36:00,31.1,29.3,29.46,SW,225,0.0,0.0,90,0.00,,,0.34,fowsr,2013-02-17 04:36:00,
2013-02-16 23:41:00,31.1,28.7,29.47,SW,225,0.0,0.0,87,0.00,,,0.34,fowsr,2013-02-17 04:41:00,
2013-02-16 23:46:00,30.9,28.3,29.47,SW,225,0.0,0.0,86,0.00,,,0.34,fowsr,2013-02-17 04:46:00,
2013-02-16 23:51:00,30.9,28.1,29.47,SW,225,0.0,0.0,85,0.00,,,0.34,fowsr,2013-02-17 04:51:00,
2013-02-16 23:56:00,30.7,27.9,29.47,SW,225,0.0,0.0,85,0.00,,,0.34,fowsr,2013-02-17 04:56:00,